Location: Bad Salzschlirf
(50.3750°N, 9.3000°E)
Time: 08:56:31
(UTC+01:00)

ISS - Pass Details

Date: 13 December 2018
Orbit: 401 x 408 km, 51.6° (Epoch: 12 December)

Event Time Altitude Azimuth Distance (km) Brightness Sun altitude
Rises 18:03:53 0° 280° (W) 2,318 1.2 -15.6°
Reaches altitude 10° 18:06:51 10° 250° (WSW) 1,453 0.3 -16.1°
Maximum altitude 18:08:22 13° 222° (SW) 1,298 -0.4 -16.3°
Drops below altitude 10° 18:09:53 10° 195° (SSW) 1,448 -0.6 -16.5°
Sets 18:12:50 0° 165° (SSE) 2,300 0.0 -17.0°
